EHI
0 1 2 3 2 2 3 3 2 1 0 0 0 0 0 0 0 1 0 0 0 0 0 0 0 0 0 0 0 0 0 0 0 0 0 0 0 0 0 0 0 0 0
0 1 2 3 3 3 3 3 3 2 1 1 1 0 0 0 0 1 0 0 0 0 1 1 1 1 0 0 0 0 0 0 0 0 0 0 0 0 0 0 0 0 0
0 1 2 3 3 3 3 3 3 3 2 2 1 0 0 0 0 0 0 0 0 0 1 2 2 2 1 1 0 0 0 0 0 0 0 0 0 0 0 0 0 0 0
0 1 2 3 3 3 3 3 3 2 1 1 1 0 0 0 0 0 0 0 0 0 1 1 2 2 2 2 1 0 1 1 0 0 0 0 0 0 0 0 0 0 0
0 1 2 3 3 3 3 2 2 2 1 1 1 0 0 0 1 1 1 0 0 0 0 0 1 1 1 2 2 1 1 1 0 0 0 0 0 0 0 0 0 0 0
0 1 2 3 3 3 3 1 0 1 1 2 2 1 1 1 2 2 2 1 0 0 0 0 0 0 0 1 2 2 1 1 0 0 0 0 0 0 0 0 0 0 0
0 1 2 3 3 3 2 1 0 0 1 1 2 2 2 2 2 2 2 1 0 0 0 0 0 0 0 1 3 2 1 0 0 0 0 0 0 0 0 0 0 0 0
1 1 1 1 2 2 2 1 0 0 0 0 1 1 1 1 1 1 1 0 0 0 0 0 0 0 1 2 3 2 1 0 0 0 0 0 0 0 0 0 0 0 0
2 1 1 1 1 1 1 0 0 0 0 0 0 0 0 0 0 0 0 0 0 0 0 0 0 0 1 2 2 1 0 0 0 0 0 0 0 0 0 0 0 0 0
1 1 1 1 1 1 0 0 0 0 0 0 0 0 0 0 0 0 0 0 0 0 0 0 0 0 0 1 1 0 0 0 0 0 0 0 0 0 1 1 1 0 0
0 0 0 1 1 1 0 0 0 0 0 0 0 0 0 0 0 0 0 0 0 0 0 1 1 0 0 0 0 0 0 0 0 0 0 0 0 0 1 2 1 0 0
0 0 0 0 1 1 0 0 0 0 0 0 0 0 0 0 0 0 0 0 0 0 0 1 1 0 0 0 0 0 0 0 0 0 0 0 0 0 1 1 1 1 0
0 0 0 0 0 0 0 0 0 0 0 0 0 0 0 0 0 0 0 0 0 0 0 1 1 0 0 0 0 0 0 0 0 0 0 0 0 0 0 0 1 1 1
0 0 0 0 0 0 0 0 0 0 0 0 0 0 0 0 0 0 0 0 0 0 0 0 0 0 0 0 0 0 0 0 0 0 0 0 0 0 0 0 0 1 2
0 0 0 0 0 0 0 0 0 0 0 0 0 0 0 0 0 0 0 0 0 0 0 0 0 0 0 0 0 0 0 0 0 0 0 0 0 0 0 1 1 2 2
0 0 0 0 0 0 0 0 0 0 0 0 0 0 0 0 0 0 0 0 0 0 0 0 0 0 0 0 0 0 0 0 0 0 0 0 0 0 0 1 2 2 1
0 0 0 0 0 0 0 0 0 0 0 0 0 0 0 0 0 0 0 0 0 0 0 0 0 0 0 0 0 0 0 0 0 0 0 0 0 0 0 1 1 1 0
0 0 0 0 0 0 0 0 0 0 0 0 0 0 0 0 0 0 0 0 0 0 0 0 0 0 0 0 0 0 0 0 0 0 0 0 0 0 0 0 0 0 0
0 0 0 0 0 0 0 0 0 0 0 0 0 0 0 0 0 0 0 0 0 0 0 0 0 0 0 0 0 0 0 0 0 0 0 0 0 0 0 0 0 0 0
0 0 0 0 0 0 0 0 0 0 0 0 0 0 0 0 0 0 0 0 0 0 0 0 0 0 0 0 0 0 0 0 0 0 0 0 0 0 0 0 0 0 0
0 0 0 0 0 0 0 0 0 0 0 0 0 0 0 0 0 0 0 0 0 0 0 0 0 0 0 0 0 0 0 0 0 0 0 0 0 0 0 0 0 0 0
0 0 0 0 0 0 0 0 0 0 0 0 0 0 0 0 0 0 0 0 0 0 0 0 0 0 0 0 0 0 0 0 0 0 0 0 0 0 0 0 0 0 0
0 0 0 0 0 0 0 0 0 0 0 0 0 0 0 0 0 0 0 0 0 0 0 0 0 0 0 0 0 0 0 0 0 0 0 0 0 0 0 0 0 0 0
0 0 0 0 0 0 0 0 0 0 0 0 0 0 0 0 0 0 0 0 0 0 0 0 0 0 0 0 0 0 0 0 0 0 0 0 0 0 0 0 0 0 0
0 0 0 0 0 0 0 0 0 0 0 0 0 0 0 0 0 0 0 0 0 0 0 0 0 0 0 0 0 0 0 0 0 0 0 0 0 0 0 0 0 0 0
0 0 0 0 0 0 0 0 0 0 0 0 0 0 0 0 0 0 0 0 0 0 0 0 0 0 0 0 0 0 0 0 0 0 0 0 0 0 0 0 0 0 0
Wind_Speed
2 2 3 4 7 9 9 10 10 10 10 10 10 10 10 10 10 10 10 10 10 10 11 11 12 12 12 12 12 12 12 12 12 12 11 12 12 12 12 10 8 10 12
4 4 4 5 8 9 9 10 10 10 10 10 10 10 11 11 11 11 10 11 11 11 11 11 12 12 12 12 12 12 12 12 11 10 8 9 11 12 11 11 11 9 11
5 4 5 7 9 10 10 10 10 10 11 11 11 10 10 11 11 11 11 11 11 11 11 11 12 12 12 12 12 12 12 11 10 7 4 7 10 11 11 11 11 11 11
5 5 6 8 9 10 10 10 10 10 10 11 11 11 10 10 11 11 11 11 11 11 11 11 11 12 12 12 11 11 11 11 9 4 5 6 7 10 10 11 11 11 11
5 5 7 8 9 10 10 10 10 10 11 11 11 11 10 10 10 10 11 11 11 11 11 11 11 11 11 11 11 11 11 9 6 5 6 6 7 9 10 10 10 10 10
5 6 7 8 9 10 10 10 10 10 10 11 11 11 11 11 11 10 10 11 10 10 10 11 11 10 10 11 11 11 10 8 4 6 6 6 6 8 9 9 9 9 10
6 6 7 8 9 10 10 10 10 10 10 11 11 11 12 11 11 11 10 10 10 10 10 10 10 10 10 10 10 10 9 7 5 6 6 6 7 9 8 9 9 9 9
6 6 6 8 9 9 9 9 9 10 10 11 11 11 11 11 11 11 11 10 10 9 9 9 9 10 10 10 10 10 9 6 5 6 6 7 9 9 9 8 8 8 8
6 6 5 6 7 8 8 9 9 9 10 10 11 11 11 11 11 11 11 11 10 9 9 10 9 9 10 10 10 10 9 7 5 5 6 6 9 9 9 9 8 7 7
6 5 5 5 5 5 6 8 9 9 10 10 11 11 11 10 10 11 10 10 10 10 9 9 9 9 10 10 9 9 7 4 5 5 4 6 9 8 8 8 8 7 7
5 4 4 5 5 5 5 6 7 8 8 8 8 9 7 6 6 7 10 11 10 10 10 9 9 9 8 9 9 7 4 3 4 4 5 8 9 8 8 7 7 7 6
5 4 3 4 4 4 4 3 3 4 4 5 5 5 4 4 5 6 10 11 11 10 9 9 8 6 4 4 5 4 3 4 3 4 6 10 9 8 8 8 7 6 5
6 4 3 3 4 4 3 2 2 2 3 4 5 4 4 4 3 3 3 4 5 5 5 5 3 3 4 3 3 3 4 3 3 3 6 10 9 9 8 8 8 7 5
6 5 4 3 3 3 3 2 2 2 2 2 3 3 3 2 3 3 2 3 3 2 3 3 3 3 4 4 4 4 4 3 3 3 6 10 9 9 9 8 8 8 6
6 5 5 4 4 3 3 2 2 2 2 3 3 3 3 2 2 3 2 2 3 2 2 3 3 3 3 3 3 4 4 4 3 3 3 9 10 9 9 8 8 8 7
7 6 5 4 4 4 3 2 2 2 2 2 3 3 3 2 2 2 2 2 2 2 2 2 2 2 2 2 3 3 3 3 4 3 3 5 9 10 9 9 8 8 8
8 7 6 5 5 4 4 3 2 2 2 2 2 3 3 3 2 2 2 2 2 2 2 2 3 2 2 2 3 3 3 3 3 4 4 3 4 7 10 10 9 8 8
8 8 7 5 5 5 4 3 2 2 2 2 2 2 3 3 2 2 2 2 2 1 2 2 2 2 2 2 2 2 2 2 3 3 4 4 3 3 6 10 10 10 9
9 8 8 7 6 5 4 3 3 3 2 2 2 2 2 2 2 2 1 2 1 1 2 2 2 2 2 2 2 2 1 2 2 2 3 4 4 4 4 6 8 9 9
8 8 8 7 7 6 5 4 3 3 2 2 2 2 2 2 1 1 1 2 1 1 1 2 2 2 2 2 1 1 1 1 1 2 2 2 3 4 5 5 4 5 8
9 9 9 8 8 6 5 4 4 3 2 2 2 2 2 2 2 1 1 1 1 1 1 2 1 2 2 2 1 0 1 1 1 1 1 2 3 3 4 4 4 4 3
10 10 10 9 8 7 5 4 3 3 2 2 2 2 2 2 2 1 1 1 1 1 1 1 1 1 1 2 2 1 1 2 1 1 1 2 2 2 3 4 4 4 4
10 10 9 9 9 8 6 4 4 3 2 2 2 2 1 2 2 1 1 1 1 1 1 0 0 0 0 1 2 2 2 1 0 1 1 1 2 2 2 3 3 4 4
10 9 9 9 9 8 8 7 7 5 4 3 3 2 2 2 2 1 1 1 1 1 1 1 0 1 1 1 1 1 2 2 2 1 1 1 2 3 3 2 3 3 3
9 9 8 9 9 8 8 8 7 5 4 3 3 4 3 2 2 1 1 1 1 1 1 1 1 1 1 2 1 1 1 2 3 3 3 2 2 2 3 3 2 3 3
8 8 8 9 9 9 8 8 7 7 6 5 5 4 3 2 2 2 1 1 1 1 1 1 1 1 1 2 2 2 2 2 2 3 3 3 3 3 3 2 2 3 3
Wind_Direction
137 103 62 68 83 79 76 74 72 70 69 68 69 68 68 67 67 69 67 65 67 68 70 70 68 68 68 69 69 68 68 68 67 65 65 65 69 72 70 62 69 79 75
137 123 85 83 87 83 78 75 72 70 68 66 67 67 66 66 65 65 65 64 64 66 69 69 69 69 68 68 68 68 67 66 65 62 64 77 69 68 69 59 54 71 76
125 117 109 89 88 85 81 77 74 71 69 67 66 66 64 65 63 61 63 62 62 64 67 66 66 67 67 68 68 67 66 64 61 55 63 82 78 68 68 66 67 71 73
117 116 107 91 90 86 81 77 74 72 70 68 67 64 63 64 64 63 61 62 61 61 65 66 65 65 67 66 66 66 65 64 56 39 69 72 77 72 68 68 69 70 72
111 111 101 92 92 87 81 76 74 73 70 69 67 64 62 62 64 64 61 60 60 60 62 64 64 65 65 65 64 62 62 58 54 61 66 66 71 72 70 68 68 70 71
107 107 102 92 93 88 82 78 75 72 71 69 68 66 63 63 63 64 63 59 60 61 62 63 63 64 64 64 63 59 57 48 57 65 63 63 66 69 71 68 67 70 71
103 102 104 93 93 88 84 80 76 73 70 68 68 67 65 65 65 62 60 59 60 62 62 62 62 65 64 64 64 60 54 37 55 64 60 60 58 62 68 67 67 69 70
100 96 98 95 88 86 83 79 77 74 70 66 65 65 64 62 61 60 58 58 57 60 62 61 60 62 62 63 62 57 48 30 63 60 59 57 49 53 60 64 64 66 68
94 91 88 90 92 89 83 79 77 74 71 67 64 62 63 63 59 56 54 53 53 57 62 60 59 60 60 61 60 56 48 29 52 54 53 50 41 47 52 53 57 62 65
96 92 86 84 83 87 91 80 75 73 72 71 66 61 61 62 59 53 52 50 50 51 57 60 59 59 59 58 56 52 40 34 53 51 46 45 38 41 46 46 47 55 60
102 94 93 88 83 81 80 84 83 78 73 76 73 65 62 63 60 55 48 45 45 47 52 57 58 60 60 61 52 44 34 47 55 46 41 36 36 38 41 41 41 47 50
135 115 103 98 90 84 79 82 90 85 82 74 72 70 64 60 55 55 54 46 43 43 48 50 53 56 49 57 55 38 45 47 50 50 41 33 34 35 36 35 36 39 42
151 134 117 108 102 94 88 82 80 85 82 78 73 68 70 68 66 57 59 55 46 38 39 40 43 44 47 47 39 43 42 44 43 44 41 34 33 33 34 35 34 31 32
158 149 133 123 112 100 93 90 84 95 90 81 76 69 69 68 62 56 50 43 38 32 28 27 24 44 49 51 48 49 50 46 44 43 41 34 33 32 30 32 32 29 27
168 158 150 143 128 115 104 97 89 91 98 93 86 73 66 70 66 62 54 46 40 31 31 27 29 36 43 50 49 48 50 50 47 47 49 40 32 31 29 29 28 27 27
177 169 161 155 140 130 119 114 108 99 104 108 98 85 74 68 68 66 63 46 42 33 26 24 29 33 34 44 56 54 52 54 48 45 38 47 40 33 31 29 26 23 21
181 171 168 160 149 140 129 125 119 113 117 113 102 96 85 77 76 72 72 58 42 39 35 28 34 36 42 45 57 58 57 52 54 46 37 30 40 42 34 28 23 17 12
181 174 170 161 156 147 135 136 128 127 123 118 111 105 93 82 78 80 80 69 49 38 39 32 24 31 37 33 37 51 64 62 53 44 40 33 28 26 34 28 21 19 17
184 177 173 167 162 153 141 138 127 125 122 121 119 110 103 93 87 85 80 74 65 50 51 39 31 25 27 28 28 36 49 61 58 47 45 39 34 25 19 26 22 19 16
185 180 177 171 165 154 145 140 132 123 117 112 116 115 116 111 104 94 93 83 68 67 58 50 46 34 20 11 21 39 45 56 46 43 33 35 31 23 17 10 9 15 19
184 184 182 177 171 165 162 163 158 156 145 129 114 117 123 120 119 111 107 105 82 73 63 59 57 57 25 353 331 37 125 124 53 19 10 15 23 18 14 8 3 357 359
189 187 186 184 180 178 176 169 163 150 147 134 128 125 125 127 129 134 129 130 129 110 98 79 60 37 14 346 315 258 209 188 166 341 341 356 4 2 4 5 0 2 350
193 191 189 187 184 183 171 154 143 140 146 157 153 146 142 138 133 130 145 141 149 162 159 159 63 292 292 337 332 304 270 249 314 214 280 314 342 339 343 351 351 356 352
197 193 191 187 186 183 175 175 172 174 176 175 167 163 155 156 147 139 140 148 162 176 178 193 222 264 261 265 302 328 327 321 271 256 226 261 311 316 323 326 338 342 343
194 193 191 188 188 185 185 184 182 178 170 159 161 163 159 158 154 150 153 157 166 177 177 196 218 238 260 264 267 273 262 259 267 261 261 273 288 300 311 308 313 320 332
189 190 190 188 188 187 188 188 188 179 173 170 173 174 172 168 169 163 166 165 168 177 186 202 219 231 244 247 251 255 264 257 256 262 269 278 288 301 301 294 298 309 320